Location: Chaumontel
(49.1247°N, 2.4324°E)
Time: 19:46:12
(UTC+00:00)

YAOGAN 1 - Pass Details

Date: 03 February 2023
Orbit: 616 x 618 km, 97.8° (Epoch: 26 March)

Event Time Altitude Azimuth Distance (km) Brightness Sun altitude
Rises 18:06:03 0° 152° (SSE) 2,882 5.8 -12.7°
Reaches altitude 10° 18:08:16 10° 147° (SSE) 1,981 4.9 -13.0°
Maximum altitude 18:12:27 53° 71° (ENE) 765 2.6 -13.7°
Drops below altitude 10° 18:16:41 10° 355° (N) 1,998 5.1 -14.4°
Sets 18:18:55 0° 351° (N) 2,909 6.0 -14.7°
